Location: Amsterdam
(30.7274°N, 84.4357°W)
Time: 09:01:47
(UTC+00:00)

Tiros 1 - Visible Passes

Search period start: 16 February 2026 00:00
Search period end: 26 February 2026 00:00
Orbit: 618 x 649 km, 48.4° (Epoch: 14 February)

Date Brightness Start Highest point End Pass type
(mag) Time Alt. Az. Time Alt. Az. Time Alt. Az.
18 Feb 10.1 11:30:21 10° SSE 11:32:43 14° SE 11:35:05 10° E visible
19 Feb 8.9 11:49:53 10° SSW 11:54:04 34° SE 11:58:15 10° ENE visible
20 Feb 10.3 10:33:43 10° SE 10:34:16 10° SE 10:34:48 10° ESE visible
21 Feb 9.1 10:51:42 10° S 10:55:35 26° SE 10:59:27 10° ENE visible
22 Feb 7.5 11:12:26 10° SW 11:17:02 65° SE 11:21:38 10° NE visible
23 Feb 9.3 09:55:47 18° SSE 09:57:05 20° SE 10:00:30 10° E visible
23 Feb 7.3 11:34:08 10° WSW 11:38:41 54° NW 11:43:13 10° NE visible
24 Feb 7.8 10:17:26 41° S 10:18:30 49° SE 10:22:59 10° ENE visible
25 Feb 7.0 10:38:52 47° WSW 10:40:04 70° NW 10:44:42 10° NE visible
